Location: Bethera
(33.2010°N, 79.7880°W)
Time: 04:50:47
(UTC-04:00)

Daily predictions for brighter satellites

Satellite Brightness Start Highest point End
(mag) Time Altitude Azimuth Time Altitude Azimuth Time Altitude Azimuth
CZ-4C R/B 4.0 03:40:28 38° NE 03:41:23 39° NE 03:48:37 10° ESE
ATLAS 2AS CENTAUR R/B 4.4 04:00:18 28° NNW 04:00:18 28° NNW 04:04:44 10° NNE
Okean O Rocket 4.1 04:15:13 10° NE 04:16:40 18° NE 04:16:40 18° NE
Cosmos 2344 3.6 04:26:23 73° NNW 04:26:23 73° NNW 04:34:11 10° NNE
BREEZE-M DEB (TANK) 4.4 04:36:06 44° NE 04:36:06 44° NE 04:38:09 10° NE
Cosmos 2227 Rocket 2.9 04:35:18 49° ESE 04:35:18 49° ESE 04:40:45 10° NNE
USA 238 DEB 3.7 04:35:04 63° N 04:36:16 80° ENE 04:43:19 10° SSE
USA 238 3.7 04:34:56 59° NNW 04:36:22 79° ENE 04:43:24 10° SSE
Cosmos 1607 4.0 04:38:47 72° ENE 04:38:47 72° ENE 04:44:58 10° SE
Cosmos 2297 Rocket 3.2 04:43:32 34° SE 04:45:07 41° ESE 04:50:23 10° NE
ADEOS II 4.0 04:44:10 10° NE 04:48:32 26° E 04:52:53 10° SSE
CZ-4B R/B 4.2 04:44:21 10° NNE 04:47:42 43° ENE 04:47:42 43° ENE
Meteor 2-8 Rocket 4.4 04:48:13 75° SSE 04:48:42 81° E 04:54:51 10° N
Cosmos 2219 Rocket 2.9 04:43:16 10° N 04:48:49 52° ENE 04:54:19 10° SE
USA 215 4.2 04:44:56 10° SSE 04:48:24 32° S 04:48:24 32° S
Cosmos 1727 Rocket 4.1 04:51:31 42° SSE 04:53:42 74° E 04:59:59 10° N
CZ-2D R/B 4.2 04:49:53 10° N 04:50:46 14° NNW 04:50:46 14° NNW
Lacrosse 5 rocket 4.1 05:01:27 12° N 05:01:27 12° N 05:02:11 10° N
CZ-4B DEB 4.4 04:54:42 10° NNE 05:00:10 70° ESE 05:01:53 44° S
Cosmos 220 Rocket 4.5 05:04:15 56° ENE 05:04:15 56° ENE 05:07:52 10° NNE
ISS -1.0 05:07:46 23° ESE 05:07:46 23° ESE 05:09:13 10° ESE
PAYLOAD B 4.1 05:00:52 10° NNE 05:06:23 88° WNW 05:07:22 62° SSW
Cosmos 2082 3.5 05:12:43 63° SW 05:13:38 80° WNW 05:19:16 10° NNE
Okean-O 3.6 05:14:25 10° NNE 05:18:40 46° E 05:22:55 10° S
Meteor 1-19 Rocket 4.1 05:16:23 30° S 05:19:19 86° W 05:24:59 10° N
Lacrosse 5 1.9 05:20:27 58° WNW 05:20:37 58° NW 05:25:38 10° NNE
Cosmos 2333 Rocket 2.3 05:15:40 10° NNW 05:21:23 78° ENE 05:27:02 10° SSE
ADEOS Rocket 3.2 05:15:19 10° NNE 05:22:30 85° ESE 05:28:53 10° SSW
Cosmos 1680 Rocket 4.0 05:17:37 10° N 05:22:51 61° ENE 05:28:00 10° SSE
Delta 142 4.1 05:23:18 42° S 05:23:20 42° S 05:27:15 10° ESE
Cosmos 1153 Rocket 4.5 05:20:10 10° N 05:26:32 89° W 05:32:56 10° S
BREEZE-M DEB (TANK) 4.4 05:25:07 30° S 05:27:02 53° SE 05:43:09 10° NE
NOSS 3-4 (A) 3.8 05:26:19 42° W 05:27:42 49° NW 05:33:58 10° NNE
IRS-1C Rocket 4.4 05:22:48 10° N 05:27:44 43° WNW 05:27:44 43° WNW
NOSS 3-4 (C) 3.8 05:26:23 42° W 05:27:48 49° NW 05:34:05 10° NNE
CZ-4C R/B 3.2 05:26:05 25° WNW 05:30:05 43° WSW 05:37:27 10° S
OTV 4 1.9 05:33:36 30° NE 05:33:36 30° NE 05:35:38 10° ENE
Cosmos 1605 Rocket 4.0 05:27:20 10° NNW 05:33:15 51° W 05:39:14 10° SSW
Thor Agena Rocket 3.5 05:34:57 10° SSE 05:40:13 85° WSW 05:45:33 10° NNW
Meteor 1-23 Rocket 4.1 05:35:51 10° S 05:41:25 85° W 05:47:06 10° N
Meteor 2-4 Rocket 3.7 05:36:53 10° SSW 05:42:37 75° W 05:48:31 10° N
NOSS 0 Rocket 3.9 05:39:12 10° NNW 05:45:20 62° WSW 05:51:27 10° S
CZ-4B R/B 3.6 05:41:02 10° N 05:46:00 39° WNW 05:47:55 29° WSW
CZ-2C R/B 4.3 05:46:58 34° W 05:46:58 34° W 05:50:33 10° NNW
RESURS DK-1 2.7 05:46:43 41° W 05:47:16 43° WNW 05:51:13 10° N
Cosmos 2150 Rocket 4.2 05:43:36 10° S 05:48:44 72° ESE 05:53:52 10° NNE
Hubble Space Telescope 1.8 05:50:28 28° SW 05:51:18 31° SSW 05:54:58 10° SE
Cosmos 2237 Rocket 2.1 05:45:43 10° NNW 05:51:20 71° WSW 05:56:54 10° S
Cosmos 1666 2.6 05:48:27 10° N 05:52:20 89° E 05:56:10 10° S
Cosmos 292 Rocket 4.4 05:48:02 10° N 05:52:51 59° ENE 05:57:37 10° SSE
GOES 2 Rocket 4.5 05:49:10 26° WSW 05:52:51 59° S 06:01:00 10° E
Tiangong 1 2.8 05:54:38 20° NNW 05:55:04 21° NNW 05:57:27 10° NE
Okean O Rocket 3.3 05:52:15 10° NNW 05:54:08 17° NW 05:54:08 17° NW
Cosmos 2098 Rocket 4.4 05:52:21 10° NNE 05:56:06 42° E 06:00:47 10° SSE
USA 116 4.3 05:52:03 10° SSE 05:57:22 88° W 06:02:19 10° NNW
OAO 2 Rocket 4.5 05:55:06 16° SW 05:58:55 38° SSE 06:03:50 10° E
Gbstr 26 Del rocket 4.5 05:52:05 10° NW 05:59:44 75° SW 06:07:52 10° SE
Cosmos 2061 Rocket 4.0 05:53:30 10° N 05:59:49 87° W 06:06:13 10° S
Cosmos 1025 Rocket 3.9 05:59:15 27° W 05:59:56 29° WNW 06:03:43 10° NNW
DELTA 2 R/B (1) 3.6 05:59:55 24° WSW 06:03:22 75° NNW 06:08:58 10° ENE
Cosmos 1346 Rocket 3.3 06:02:15 21° SW 06:04:18 37° WNW 06:08:01 10° N
Cosmos 1980 3.9 05:59:01 10° NNW 06:04:27 48° WSW 06:09:52 10° S
Cosmos 1626 Rocket 4.4 06:00:15 10° S 06:04:31 54° E 06:08:48 10° NNE
ATLAS 5 CENTAUR R/B 2.4 05:59:23 10° NNW 06:05:36 84° WSW 06:12:10 10° SSE
Cosmos 1802 Rocket 3.9 06:00:51 10° N 06:07:01 86° W 06:13:09 10° S
Cosmos 2100 Rocket 4.0 06:03:14 10° NNW 06:09:24 64° W 06:15:36 10° S
SL-16 R/B 2.6 06:03:48 10° NNW 06:09:29 68° ENE 06:15:06 10° SSE
CZ-4B R/B 3.7 06:05:47 10° N 06:09:44 85° WNW 06:13:29 10° SSW
Ariane Rocket 4.2 06:05:04 10° NNE 06:09:58 45° E 06:14:49 10° S
USA 129 1.8 06:08:08 10° SSE 06:10:14 69° ENE 06:12:12 10° N
Cosmos 1606 Rocket 3.9 06:07:37 10° NNW 06:11:41 39° W 06:15:43 10° SSW
Meteor 2-9 Rocket 4.2 06:07:20 10° NNW 06:12:55 63° W 06:18:36 10° S
Meteor 2-15 Rocket 4.5 06:08:04 10° S 06:14:08 88° E 06:20:14 10° N
Cosmos 1743 4.2 06:12:16 10° NW 06:14:09 17° WNW 06:14:09 17° WNW
Cosmos 2227 Rocket 3.6 06:17:11 15° W 06:19:35 20° WNW 06:23:39 10° NNW
Delta 2 Rocket 3.3 06:17:21 16° WNW 06:20:04 57° N 06:23:27 10° E
NOSS 3-2 (A) 4.3 06:15:17 10° NW 06:22:36 47° WSW 06:30:17 10° S
Cosmos 1726 Rocket 4.1 06:19:33 10° NNW 06:23:31 34° W 06:27:27 10° SSW
Cosmos 1725 Rocket 4.4 06:17:17 10° N 06:23:35 70° E 06:29:48 10° SSE
Cosmos 1898 Rocket 3.9 06:20:36 10° SW 06:25:41 45° WNW 06:30:46 10° N
Cosmos 1602 Rocket 3.5 06:22:16 10° S 06:26:44 80° W 06:31:11 10° N
ADEOS II 2.9 06:23:37 10° N 06:28:11 31° WNW 06:32:44 10° SW
Cosmos 2297 Rocket 3.4 06:25:25 12° WSW 06:29:16 23° WNW 06:33:40 10° N
SKYMED 2 4.2 06:26:38 10° SSE 06:30:53 61° ENE 06:35:10 10° N
Cosmos 2219 Rocket 3.5 06:28:42 10° WNW 06:32:14 17° W 06:35:46 10° SW
NOAA 6 4.2 06:35:56 10° N 06:41:00 54° WNW 06:46:01 10° SSW
ISS -1.2 06:40:56 10° WSW 06:42:11 12° SW 06:43:27 10° SSW
Cosmos 1937 Rocket 3.9 06:38:00 10° SW 06:42:55 43° WNW 06:47:56 10° N
Cosmos 2016 Rocket 4.3 06:41:51 10° NNW 06:47:51 46° W 06:53:46 10° SSW
